TimeCST,TemperatureF,Dew PointF,Humidity,Sea Level PressureIn,VisibilityMPH,Wind Direction,Wind SpeedMPH,Gust SpeedMPH,PrecipitationIn,Events,Conditions,WindDirDegrees,DateUTC
12:15 AM,5.0,-2.2,72,30.34,10.0,WNW,10.4,-,N/A,,Overcast,300,2014-03-02 06:15:00
12:35 AM,5.0,-4.0,66,30.34,10.0,NW,12.7,-,N/A,,Overcast,310,2014-03-02 06:35:00
12:55 AM,5.0,-4.0,66,30.34,10.0,NW,10.4,-,N/A,,Overcast,310,2014-03-02 06:55:00
1:15 AM,5.0,-5.8,61,30.35,10.0,NW,13.8,-,N/A,,Overcast,310,2014-03-02 07:15:00
1:35 AM,5.0,-5.8,61,30.35,10.0,NW,12.7,-,N/A,,Overcast,310,2014-03-02 07:35:00
1:55 AM,3.2,-5.8,66,30.35,10.0,NW,9.2,-,N/A,,Overcast,310,2014-03-02 07:55:00
2:15 AM,3.2,-5.8,66,30.34,10.0,NW,11.5,-,N/A,,Overcast,310,2014-03-02 08:15:00
2:35 AM,3.2,-5.8,66,30.34,10.0,NW,12.7,16.1,N/A,,Overcast,310,2014-03-02 08:35:00
2:55 AM,3.2,-5.8,66,30.34,10.0,NW,13.8,17.3,N/A,,Overcast,320,2014-03-02 08:55:00
3:15 AM,3.2,-5.8,66,30.34,10.0,NW,13.8,-,N/A,,Overcast,310,2014-03-02 09:15:00
3:35 AM,3.2,-5.8,66,30.35,10.0,NW,11.5,-,N/A,,Overcast,310,2014-03-02 09:35:00
3:55 AM,3.2,-5.8,66,30.34,10.0,NW,11.5,-,N/A,,Overcast,310,2014-03-02 09:55:00
4:15 AM,3.2,-5.8,66,30.34,10.0,NW,12.7,-,N/A,,Overcast,310,2014-03-02 10:15:00
4:35 AM,3.2,-5.8,66,30.35,10.0,NW,10.4,-,N/A,,Overcast,320,2014-03-02 10:35:00
4:55 AM,3.2,-5.8,66,30.35,10.0,NNW,10.4,-,N/A,,Overcast,330,2014-03-02 10:55:00
5:15 AM,1.4,-7.6,66,30.35,10.0,NNW,9.2,-,N/A,,Overcast,330,2014-03-02 11:15:00
5:45 AM,1.4,-7.6,66,30.36,10.0,NNW,12.7,-,N/A,,Overcast,330,2014-03-02 11:45:00
6:45 AM,-0.4,-7.6,72,30.36,10.0,NW,11.5,-,N/A,,Mostly Cloudy,310,2014-03-02 12:45:00
7:45 AM,-0.4,-7.6,72,30.37,10.0,NW,11.5,-,N/A,,Mostly Cloudy,310,2014-03-02 13:45:00
8:45 AM,1.4,-7.6,66,30.38,10.0,NW,12.7,-,N/A,,Overcast,320,2014-03-02 14:45:00
9:45 AM,1.4,-9.4,61,30.39,10.0,NNW,12.7,18.4,N/A,,Overcast,330,2014-03-02 15:45:00
10:45 AM,1.4,-9.4,61,30.39,10.0,NNW,11.5,-,N/A,,Mostly Cloudy,330,2014-03-02 16:45:00
11:45 AM,3.2,-9.4,56,30.40,10.0,NNW,11.5,-,N/A,,Scattered Clouds,330,2014-03-02 17:45:00
12:45 PM,3.2,-9.4,56,30.38,10.0,NNW,11.5,-,N/A,,Scattered Clouds,330,2014-03-02 18:45:00
1:45 PM,3.2,-11.2,51,30.35,10.0,NW,11.5,-,N/A,,Scattered Clouds,310,2014-03-02 19:45:00
2:45 PM,3.2,-14.8,43,30.35,10.0,NW,11.5,-,N/A,,Scattered Clouds,310,2014-03-02 20:45:00
3:45 PM,3.2,-16.6,39,30.36,10.0,NW,11.5,-,N/A,,Scattered Clouds,310,2014-03-02 21:45:00
4:45 PM,3.2,-16.6,39,30.37,10.0,NW,11.5,-,N/A,,Scattered Clouds,310,2014-03-02 22:45:00
5:15 PM,3.2,-14.8,43,30.38,10.0,NW,6.9,-,N/A,,Clear,310,2014-03-02 23:15:00
5:35 PM,3.2,-14.8,43,30.37,10.0,WNW,6.9,-,N/A,,Clear,290,2014-03-02 23:35:00
5:45 PM,1.4,-16.6,43,30.38,10.0,NW,11.5,-,N/A,,Scattered Clouds,310,2014-03-02 23:45:00
5:55 PM,1.4,-14.8,47,30.37,10.0,WNW,8.1,-,N/A,,Clear,300,2014-03-02 23:55:00
6:15 PM,1.4,-14.8,47,30.37,10.0,NW,8.1,-,N/A,,Clear,310,2014-03-03 00:15:00
6:35 PM,1.4,-14.8,47,30.38,10.0,West,4.6,-,N/A,,Clear,280,2014-03-03 00:35:00
6:45 PM,-0.4,-16.6,46,30.38,10.0,WNW,4.6,-,N/A,,Clear,290,2014-03-03 00:45:00
6:50 PM,1.4,-14.8,47,30.39,10.0,Calm,Calm,-,N/A,,Clear,0,2014-03-03 00:50:00
7:15 PM,-0.4,-14.8,51,30.38,10.0,Calm,Calm,-,N/A,,Clear,0,2014-03-03 01:15:00
7:35 PM,-0.4,-14.8,51,30.38,10.0,Calm,Calm,-,N/A,,Clear,0,2014-03-03 01:35:00
7:45 PM,-0.4,-16.6,46,30.39,10.0,WNW,4.6,-,N/A,,Clear,290,2014-03-03 01:45:00
7:55 PM,-0.4,-14.8,51,30.38,10.0,West,6.9,-,N/A,,Clear,280,2014-03-03 01:55:00
8:15 PM,-0.4,-16.6,46,30.38,10.0,West,4.6,-,N/A,,Clear,280,2014-03-03 02:15:00
8:35 PM,-0.4,-16.6,46,30.38,10.0,WNW,5.8,-,N/A,,Clear,290,2014-03-03 02:35:00
8:45 PM,-0.4,-16.6,46,30.38,10.0,WNW,4.6,-,N/A,,Clear,290,2014-03-03 02:45:00
8:55 PM,-0.4,-16.6,46,30.38,10.0,WNW,8.1,-,N/A,,Clear,300,2014-03-03 02:55:00
9:15 PM,-0.4,-16.6,46,30.40,10.0,WNW,6.9,-,N/A,,Clear,300,2014-03-03 03:15:00
9:35 PM,-0.4,-16.6,46,30.42,10.0,West,6.9,-,N/A,,Clear,280,2014-03-03 03:35:00
9:55 PM,-0.4,-16.6,46,30.42,10.0,WNW,6.9,-,N/A,,Clear,290,2014-03-03 03:55:00
10:15 PM,-0.4,-16.6,46,30.42,10.0,WNW,6.9,-,N/A,,Clear,300,2014-03-03 04:15:00
10:35 PM,-0.4,-16.6,46,30.42,10.0,NW,8.1,-,N/A,,Clear,310,2014-03-03 04:35:00
10:55 PM,-0.4,-16.6,46,30.42,10.0,NW,6.9,-,N/A,,Clear,310,2014-03-03 04:55:00
11:15 PM,-2.2,-16.6,50,30.41,10.0,NW,10.4,-,N/A,,Clear,310,2014-03-03 05:15:00
11:30 PM,-2.2,-16.6,50,30.42,10.0,NW,9.2,-,N/A,,Clear,310,2014-03-03 05:30:00
11:55 PM,-2.2,-18.4,46,30.44,10.0,NW,9.2,-,N/A,,Clear,310,2014-03-03 05:55:00